This is the latest recevied weather packets stored in our database for station/object KSRR. If no packets are shown the sender has not sent any weather packets the latest 10 day(s).
| Time | Temp. | Humidity | Pressure | Rain* | Wind** | Luminosity | Snow |
|---|---|---|---|---|---|---|---|
| 1778135022 | 6.67° C | 48% | 1023.7 hPa | - | - | - | - |
| 1778134418 | 6.67° C | 52% | 1023.4 hPa | - | - | - | - |
| 1778133820 | 6.67° C | 52% | 1023.4 hPa | - | - | - | - |
| 1778133219 | 7.78° C | 49% | 1023.4 hPa | - | - | - | - |
| 1778132619 | 7.78° C | 49% | 1023.4 hPa | - | - | - | - |
| 1778132019 | 8.89° C | 45% | 1023 hPa | - | - | - | - |
| 1778131420 | 8.89° C | 45% | 1023 hPa | - | - | - | - |
| 1778130820 | 10° C | 39% | 1022.7 hPa | - | - | - | - |
| 1778130221 | 10° C | 39% | 1022.7 hPa | - | - | - | - |
| 1778129618 | 10° C | 34% | 1022.4 hPa | - | - | - | - |
| 1778129022 | 10° C | 34% | 1022.4 hPa | - | - | - | - |
| 1778128422 | 10° C | 25% | 1022 hPa | - | - | - | - |
| 1778127818 | 10° C | 25% | 1022 hPa | - | - | - | - |
| 1778127221 | 10° C | 21% | 1021.3 hPa | - | - | - | - |
| 1778126746 | 10° C | 21% | 1021.3 hPa | - | - | - | - |
| 1778126019 | 11.67° C | 17% | 1021 hPa | - | - | - | - |
| 1778125545 | 11.67° C | 17% | 1021 hPa | - | - | - | - |
| 1778124821 | 12.78° C | 16% | 1020.7 hPa | - | - | - | - |
| 1778124222 | 12.78° C | 16% | 1020.7 hPa | - | - | - | - |
| 1778123623 | 12.78° C | 17% | 1020.3 hPa | - | - | - | - |
| 1778123021 | 12.78° C | 17% | 1020.3 hPa | - | - | - | - |
| 1778122422 | - | - | 1017.3 hPa | - | - | - | - |
| 1778121820 | - | - | 1017.3 hPa | - | - | - | - |
| 1778121222 | 12.78° C | 17% | 1020 hPa | - | - | - | - |
| 1778120618 | 12.78° C | 17% | 1020 hPa | - | - | - | - |
* Rain since midnight (hover to see other rain measurements)
** Current wind speed in m/s (hover to see current wind gust speed)